Location: Malvern Link
(52.1333°N, 2.3000°W)
Time: 07:23:13
(UTC+00:00)

QB50P2 - Pass Details

Date: 07 July 2022
Orbit: 590 x 605 km, 97.9° (Epoch: 15 August)

Event Time Altitude Azimuth Distance (km) Brightness Sun altitude
Rises 01:06:36 0° 20° (NNE) 2,868 ? -14.4°
Reaches altitude 10° 01:08:55 10° 29° (NNE) 1,961 ? -14.3°
Maximum altitude 01:12:53 37° 97° (E) 951 ? -14.2°
Enters shadow 01:15:45 17° 158° (SSE) 1,561 ? -14.1°
